SCP
0 0 0 0 0 0 0 0 0 0 0 0 0 0 0 0 0 0 0 0 0 0 0 0 0 0 0 0 0 -0 -0 0 0 0 0 0 -0 0 -0 -0 -0 -0 -0 0 0 0 0 0 0 0 -0 -0 0 0
0 0 0 0 0 0 0 0 0 0 0 0 0 0 0 0 0 0 0 0 0 0 0 -0 -0 0 -0 -0 -0 -0 0 0 0 0 0 0 -0 -0 -0 -0 -0 0 0 -0 0 0 -0 -0 0 0 0 -0 -0 -0
0 0 0 0 0 0 0 0 0 0 0 0 0 0 0 0 0 0 0 -0 0 0 0 0 0 0 -0 0 0 -0 0 0 0 -0 0 0 0 0 0 0 -0 0 0 0 0 0 -0 0 0 0 0 0 0 -0
0 0 0 0 0 0 0 0 0 0 0 0 0 0 0 0 0 -0 -0 -0 0 0 0 0 0 0 0 0 0 -0 0 0 0 -0 0 0 0 0 0 0 0 0 0 0 0 0 -0 0 0 0 0 0 0 0
0 0 0 0 0 0 0 0 0 0 0 0 0 0 0 0 0 -0 -0 -0 0 0 0 -0 -0 -0 -0 0 0 0 -0 -0 -0 0 0 0 -0 0 0 0 0 0 0 0 0 0 0 0 0 0 0 0 0 0
0 0 0 0 0 0 0 0 0 0 0 0 0 0 0 0 0 0 0 0 0 0 0 0 0 0 0 0 0 0 0 -0 0 0 0 0 -0 0 0 0 0 0 -0 0 0 0 0 0 0 0 0 0 0 0
0 0 0 0 0 0 0 0 0 0 0 0 0 0 0 0 0 0 0 0 0 -0 0 0 0 0 -0 0 0 0 0 0 0 0 -0 -0 -0 0 0 0 -0 -0 0 0 0 0 0 0 0 0 0 0 0 0
0 0 0 0 0 0 0 0 0 0 0 0 0 0 0 0 -0 0 0 0 0 0 0 0 0 0 0 0 0 0 0 0 0 0 0 0 0 0 0 0 0 0 0 0 0 0 0 0 0 0 0 0 0 0
0 0 0 0 0 0 0 0 0 0 0 0 0 0 0 0 0 0 0 0 0 0 0 0 0 0 0 0 0 0 0 0 0 0 0 0 0 0 0 0 0 0 0 0 0 0 0 0 0 0 0 0 0 0
0 0 0 0 0 0 0 0 0 0 0 0 0 0 0 0 0 0 0 0 0 0 0 -0 -0 -0 0 0 0 0 -0 0 0 0 0 0 0 -0 0 0 0 0 0 0 0 0 0 0 0 0 0 0 0 0
0 0 0 0 0 0 0 0 0 0 0 0 0 0 0 0 0 0 0 0 0 0 0 -0 -0 -0 0 0 0 0 0 0 0 0 0 0 0 0 0 0 0 0 0 0 0 0 0 0 0 0 0 0 0 0
0 0 0 0 0 0 0 0 0 0 0 0 0 -0 0 0 0 0 0 0 0 0 0 0 0 0 0 0 0 0 0 0 0 0 0 0 0 0 0 0 0 0 0 0 0 0 0 0 0 0 0 0 0 0
0 0 0 0 0 0 0 0 0 0 0 0 0 0 0 0 0 0 0 0 0 0 0 0 0 0 0 0 0 0 0 0 0 0 0 0 0 0 0 0 0 0 0 0 0 0 0 0 0 0 0 0 0 0
0 0 0 0 0 0 0 0 0 0 0 0 0 0 0 0 0 0 0 0 0 0 -0 0 0 0 0 0 0 0 0 0 0 0 0 0 0 0 0 0 0 0 0 0 0 0 0 0 0 0 -0 -0 -0 -0
0 0 0 0 0 0 0 0 0 0 0 0 0 0 0 -0 0 -0 0 0 0 0 -0 0 0 0 0 0 0 0 0 0 0 0 0 0 0 0 0 0 0 0 0 0 0 0 0 0 0 0 0 0 0 0
0 0 0 0 0 0 0 0 0 0 0 0 0 0 -0 0 0 0 0 0 0 -0 0 0 0 0 0 0 0 0 0 0 0 0 0 0 0 0 0 0 0 0 0 0 -0 0 0 0 0 0 0 0 0 0
0 0 0 0 0 0 0 0 0 0 0 0 0 0 -0 0 0 0 0 -0 0 0 0 0 0 0 0 0 0 0 0 -0 -0 -0 0 0 0 0 -0 0 0 0 0 0 0 0 0 0 0 0 0 0 0 0
0 0 0 0 -0 0 0 0 0 0 0 0 0 0 0 0 -0 0 0 0 0 0 0 0 0 0 0 0 0 0 0 -0 0 -0 -0 0 0 0 0 0 0 0 0 0 -0 -0 0 0 0 0 0 0 0 -0
0 0 0 0 -0 -0 0 0 0 0 0 0 -0 -0 -0 0 0 0 0 0 0 0 0 -0 0 0 0 0 0 0 -0 0 0 0 0 0 0 0 0 0 0 0 0 0 0 0 0 0 0 0 0 0 0 0
-0 -0 0 -0 -0 -0 0 0 0 0 0 0 -0 -0 -0 -0 0 0 0 0 0 0 -0 0 0 0 0 0 0 0 0 0 0 0 0 0 0 0 0 0 0 0 0 0 0 0 0 0 0 0 0 0 0 0
-0 0 -0 -0 -0 -0 0 0 0 0 -0 -0 0 -0 0 0 0 0 0 0 0 0 -0 -0 0 0 0 0 0 0 0 -0 0 0 0 -0 0 0 0 0 0 0 0 0 0 0 0 0 0 0 0 0 0 0
-0 -0 -0 -0 -0 -0 0 0 -0 0 -0 0 0 0 0 0 0 0 0 0 -0 -0 -0 0 0 -0 0 0 0 0 0 -0 -0 0 -0 -0 0 0 0 0 0 0 0 0 0 0 0 0 0 0 0 0 -0 -0
-0 -0 -0 -0 0 0 -0 0 0 0 0 0 0 0 0 0 0 0 0 0 0 0 0 -0 0 0 0 0 0 0 0 -0 -0 0 -0 -0 -0 -0 0 0 0 0 0 0 0 -0 -0 0 0 0 0 0 0 0
-0 -0 -0 -0 -0 0 0 0 0 0 0 0 0 0 0 -0 0 -0 -0 -0 0 -0 0 -0 0 0 0 0 0 0 0 0 0 -0 -0 -0 -0 -0 0 0 0 0 0 0 0 0 0 0 0 0 0 0 0 0
0 0 0 0 0 0 0 0 0 0 0 0 0 0 0 0 0 0 -0 0 0 0 -0 -0 0 0 0 0 0 -0 0 0 0 0 0 -0 -0 -0 -0 0 0 0 0 0 0 0 0 0 0 0 0 0 0 0
0 0 0 0 0 0 0 0 0 0 0 0 0 0 0 0 0 0 0 0 0 -0 -0 0 0 0 0 0 0 0 0 0 0 0 0 -0 0 0 0 0 0 0 0 0 0 0 0 0 0 0 0 0 0 0
0 0 0 0 0 0 0 0 0 0 0 0 0 0 0 0 0 0 0 0 0 -0 -0 0 0 0 0 0 0 0 0 0 0 0 0 0 0 -0 -0 0 0 0 0 -0 0 -0 0 0 0 0 0 0 0 0
0 0 0 0 0 0 0 0 0 0 0 0 0 0 0 0 0 0 0 -0 -0 0 0 0 0 0 0 0 0 0 -0 -0 0 0 -0 -0 0 0 0 0 0 -0 0 0 0 0 0 0 0 0 0 0 -0 -0
0 0 0 0 0 0 0 -0 -0 0 0 0 0 0 0 -0 0 0 -0 0 0 0 0 0 0 0 0 0 0 0 0 0 0 0 0 0 -0 -0 -0 -0 -0 0 -0 0 -0 -0 0 0 0 0 0 0 -0 0
0 0 0 0 0 0 0 0 0 0 0 0 0 -0 -0 -0 -0 -0 0 0 0 0 0 0 0 0 0 0 -0 0 0 0 0 0 0 0 0 -0 -0 -0 0 -0 -0 -0 0 0 0 -0 -0 0 0 0 -0 -0
0 0 0 0 0 0 0 0 -0 0 0 -0 0 0 -0 0 -0 -0 0 0 0 0 0 0 0 0 0 0 0 0 0 0 0 0 0 0 0 0 0 -0 -0 0 0 0 0 0 -0 0 0 0 0 -0 0 -0
0 0 0 0 0 0 0 0 0 0 0 -0 0 0 0 0 -0 -0 -0 -0 0 0 0 0 0 0 0 0 0 0 0 0 0 0 0 0 0 0 0 0 0 0 0 0 0 0 0 -0 0 0 0 -0 -0 0
0 0 0 0 0 0 0 0 0 0 0 -0 -0 -0 -0 -0 -0 0 0 0 0 0 0 0 0 0 0 0 0 0 0 0 0 0 0 0 0 0 0 0 0 0 0 0 0 0 -0 -0 -0 0 -0 -0 0 0
Wind_Speed_500mb
77 72 68 64 60 56 48 46 40 39 37 33 21 15 13 11 8 9 14 13 9 13 33 24 16 22 17 13 7 12 11 8 10 5 6 7 7 10 12 18 18 15 12 16 13 10 14 28 35 20 32 52 50 55
67 64 61 57 54 48 42 35 33 39 31 23 16 14 13 12 13 12 16 10 12 19 30 40 35 32 35 24 15 8 6 9 7 4 6 7 12 15 22 19 14 9 4 8 10 14 47 48 33 40 46 51 61 62
54 51 48 45 38 32 29 29 35 29 22 18 14 12 12 14 18 21 20 22 22 16 30 25 28 13 16 31 23 12 7 7 2 10 8 5 7 11 10 15 20 15 21 8 19 8 37 45 49 40 46 56 60 60
36 33 29 27 27 25 26 31 28 22 18 16 11 11 14 16 16 20 19 23 23 13 9 12 4 11 10 17 27 27 16 4 9 12 3 4 6 14 11 19 24 29 25 16 26 34 56 22 51 53 64 66 69 66
29 28 26 25 25 24 28 24 20 16 15 13 9 12 14 13 13 16 19 22 18 12 10 37 34 29 31 22 25 25 20 22 15 4 2 4 14 12 16 19 17 10 4 2 11 42 34 50 65 67 64 60 65 66
27 25 23 23 22 19 14 17 12 12 13 14 17 17 15 13 12 8 8 15 8 8 10 8 12 20 12 20 25 30 22 16 12 3 5 10 18 7 6 11 7 6 12 12 14 41 51 57 52 50 60 63 65 58
24 23 20 15 12 12 6 7 9 10 13 19 23 20 25 26 17 15 6 5 20 7 7 11 9 19 24 20 18 22 20 8 10 6 10 16 25 11 5 14 41 27 31 30 32 38 36 28 53 58 56 59 58 47
11 11 10 6 3 2 5 8 11 20 22 22 21 16 12 10 14 18 18 23 13 14 8 6 8 25 32 22 17 23 18 13 11 9 8 10 8 9 9 25 23 25 27 27 26 29 36 45 48 46 59 54 54 44
2 1 1 3 5 9 17 18 18 16 13 8 2 4 3 6 9 12 16 14 15 14 6 9 8 3 22 18 12 18 15 8 10 10 9 11 7 11 19 29 25 22 21 32 37 36 36 42 53 42 61 56 50 45
5 9 13 16 18 16 13 11 8 6 8 11 10 5 5 9 11 7 4 7 9 12 12 14 31 8 11 5 5 11 9 6 6 13 13 8 12 36 24 22 23 27 23 27 36 41 43 50 50 46 59 55 48 37
14 14 14 12 11 10 9 6 4 12 14 4 6 5 4 9 8 8 8 11 14 9 15 23 32 14 7 5 1 6 4 6 5 6 8 8 7 11 8 17 24 19 22 27 31 33 33 36 33 58 54 45 43 27
13 12 12 10 9 8 5 4 16 20 13 8 9 8 8 9 7 8 8 9 10 8 13 26 15 8 6 3 3 5 4 4 9 9 6 5 3 1 11 24 26 24 25 28 27 29 30 31 41 41 40 37 37 35
10 9 11 10 9 12 8 11 21 17 10 7 7 8 8 9 8 11 14 9 7 6 7 15 17 11 5 5 2 5 6 9 7 4 5 3 6 14 18 24 27 25 22 22 22 25 26 30 38 35 31 25 39 31
12 12 11 9 10 14 16 13 13 15 5 7 8 5 9 11 11 15 18 4 18 12 15 13 11 7 6 5 6 6 10 4 5 6 1 4 19 23 22 26 22 19 17 17 18 21 26 31 35 34 31 24 30 30
10 11 9 8 8 10 16 18 11 14 8 9 10 9 17 27 16 18 6 10 10 8 12 13 9 7 4 5 7 8 5 7 6 4 4 15 18 18 19 21 20 22 22 21 17 21 24 33 31 34 32 29 26 24
11 8 7 4 5 8 13 16 11 15 8 10 15 16 28 21 16 19 17 13 12 12 7 5 5 2 8 7 9 10 5 7 1 3 12 13 18 18 16 16 13 15 20 22 19 20 18 26 34 39 44 41 29 28
7 7 3 3 7 12 20 23 18 10 11 11 14 30 38 29 19 16 9 16 16 13 3 5 5 12 7 6 8 7 7 5 9 10 10 13 13 15 14 12 11 12 14 19 18 14 15 16 16 23 38 30 34 26
8 13 6 8 9 8 23 23 13 13 15 24 22 28 27 23 25 23 14 10 10 15 12 4 7 5 5 6 3 6 7 8 10 7 11 6 7 10 13 11 13 13 15 18 15 13 13 14 19 21 20 24 30 43
16 8 8 10 18 16 11 15 15 10 21 32 33 31 32 26 23 23 15 18 21 15 12 9 6 6 6 2 8 4 9 4 3 5 11 5 4 7 13 12 15 16 16 16 12 11 16 18 18 18 17 19 26 32
11 14 15 15 20 10 9 11 14 13 17 12 22 33 31 29 20 19 24 29 27 21 11 8 8 11 13 9 6 3 3 3 6 11 10 15 12 12 9 13 14 13 12 11 13 12 13 17 17 21 22 24 20 16
7 9 10 10 11 16 11 8 11 15 17 28 28 17 24 17 24 21 30 30 14 10 8 11 12 22 14 9 7 6 4 2 6 7 5 4 12 15 18 14 16 19 18 14 13 14 16 19 22 18 22 24 25 28
11 9 7 6 7 9 13 14 10 14 13 23 22 21 15 23 23 31 26 18 9 17 13 18 21 16 12 9 8 8 5 5 1 5 17 11 7 15 17 17 22 19 16 15 15 16 17 16 17 16 18 22 28 25
1 5 7 8 7 8 16 11 7 10 8 8 17 9 14 18 17 20 5 6 11 12 14 14 7 5 5 4 5 6 5 7 5 7 15 33 22 19 18 18 19 18 14 14 13 14 13 16 15 16 17 21 22 24
4 5 7 8 13 10 11 10 13 14 11 13 7 5 6 10 9 10 7 6 6 13 7 4 6 4 7 8 7 10 9 5 0 10 12 24 21 19 19 21 24 18 18 13 14 15 14 14 18 17 17 18 18 21
5 7 7 9 9 7 10 9 20 16 11 6 7 3 2 5 6 6 6 10 15 10 6 3 6 7 6 8 18 12 5 2 13 11 12 20 21 22 21 21 21 18 14 11 13 13 19 20 18 22 21 17 20 20
7 8 8 7 6 5 6 8 7 8 10 4 3 6 7 3 6 5 5 8 10 7 8 8 12 14 12 15 11 13 15 18 17 15 12 16 16 21 18 17 20 15 10 10 12 15 18 20 21 21 20 21 22 18
7 7 9 14 12 13 11 15 23 14 10 11 7 8 5 4 7 5 9 4 5 10 12 19 22 5 15 22 16 15 16 19 20 19 18 17 23 19 16 19 19 18 15 12 14 17 19 18 18 18 17 17 16 16
13 9 8 13 17 16 21 14 12 11 9 11 13 5 7 3 2 4 4 2 8 16 21 35 10 5 15 17 18 16 16 19 18 19 23 24 24 22 22 20 20 19 16 17 17 19 19 18 19 17 15 15 15 15
15 16 14 19 14 9 6 5 4 3 14 5 4 5 5 4 6 12 10 20 24 13 22 19 12 15 16 14 17 16 18 15 17 17 17 22 20 21 21 19 18 21 15 12 15 19 18 17 14 15 15 16 13 13
11 10 9 13 8 7 10 6 7 15 9 4 6 8 15 14 14 15 14 30 18 6 12 13 12 12 10 18 22 24 18 17 16 18 20 21 19 19 18 17 17 15 16 18 18 19 13 17 20 13 14 12 9 9
9 7 9 12 11 13 13 16 14 5 11 13 8 7 15 18 17 16 11 11 3 4 10 13 15 17 14 14 16 19 20 17 15 19 20 17 17 17 16 16 14 14 15 17 8 8 7 14 12 9 9 9 11 13
7 8 7 6 9 14 13 10 13 10 8 7 6 9 16 13 15 9 9 9 8 8 10 10 13 13 13 11 12 13 17 14 14 17 22 20 16 14 11 10 12 11 8 7 10 8 9 9 10 13 12 9 12 13
9 8 11 18 11 5 5 7 9 9 7 5 7 7 10 11 12 9 8 6 8 13 11 13 17 20 18 14 12 11 6 1 7 11 17 17 12 12 14 8 10 7 10 9 8 7 6 4 6 7 9 10 10 11
Wind_Direction_500mb
293 293 293 293 292 290 287 291 293 302 300 296 279 282 280 281 225 249 282 287 266 282 291 274 270 260 263 262 265 338 300 226 279 286 295 359 293 344 303 297 317 313 299 269 273 252 258 5 339 344 312 317 319 312
293 293 292 290 289 287 286 287 291 293 288 280 269 267 251 244 220 251 293 306 279 260 273 287 275 268 248 243 245 256 243 295 321 341 341 335 315 309 310 295 304 293 20 289 299 294 318 319 331 324 317 308 311 310
293 293 291 289 287 285 283 288 288 285 276 255 255 242 244 250 241 256 274 293 306 287 305 298 228 255 229 219 219 222 273 275 318 342 348 319 286 323 297 302 325 322 319 264 298 293 310 335 320 322 315 310 307 305
297 295 294 291 287 280 282 280 272 263 247 238 236 252 259 264 265 271 263 277 285 279 289 326 229 220 222 195 209 219 233 269 312 302 290 254 275 308 296 309 299 290 300 296 293 303 328 314 319 313 308 306 304 302
298 299 298 290 284 282 281 273 264 252 228 224 238 266 283 257 257 274 269 268 282 262 293 295 287 274 235 234 200 198 221 240 263 285 311 269 300 307 296 285 278 25 63 308 289 307 293 295 306 313 309 305 303 302
300 299 298 292 283 276 267 269 237 222 221 243 257 275 273 263 270 311 281 222 233 270 300 306 312 217 183 177 192 200 202 214 228 270 263 262 253 271 286 288 116 44 326 300 269 298 301 304 307 311 310 312 312 309
289 286 287 279 272 271 227 222 236 248 263 267 279 271 273 267 236 250 266 178 162 305 273 292 283 185 176 175 158 161 179 185 202 219 233 250 267 212 252 261 281 321 319 317 310 311 308 313 313 321 321 317 323 317
295 291 288 275 181 223 265 262 264 275 277 277 280 278 292 259 229 259 252 240 266 281 254 266 265 180 181 180 171 180 163 183 212 230 243 236 161 204 253 251 279 316 315 311 313 308 293 307 310 319 334 325 327 323
10 348 269 260 255 267 277 273 275 276 276 280 260 264 120 161 222 227 248 236 238 233 251 241 286 347 178 184 178 171 170 188 196 222 233 160 191 226 235 251 289 295 292 306 321 315 325 326 325 311 332 328 325 319
283 276 268 268 274 282 278 268 271 284 151 140 120 215 228 214 214 233 179 186 202 210 236 253 258 265 280 144 138 160 204 204 218 220 191 218 247 249 258 264 281 274 284 306 312 325 323 334 340 333 331 332 329 320
287 284 281 276 272 266 270 264 203 145 150 176 225 254 199 203 195 215 221 205 188 223 225 237 232 232 17 17 87 236 224 213 262 162 230 204 247 244 265 295 309 287 279 290 311 331 332 340 341 337 343 349 350 359
288 278 276 277 261 238 229 204 166 153 186 213 278 287 198 208 202 229 217 207 191 244 204 201 173 179 103 59 251 300 267 267 256 156 237 255 135 276 352 330 328 314 310 313 318 338 342 357 348 351 357 1 14 11
273 270 273 265 254 226 225 195 190 181 195 252 238 239 210 221 226 226 207 200 212 212 189 163 175 136 99 101 163 244 247 234 257 228 254 1 344 354 349 331 324 326 331 332 341 344 7 2 357 4 5 9 27 25
273 274 276 251 264 241 215 196 196 210 226 243 220 248 230 202 234 220 249 220 229 185 208 172 143 137 137 167 222 242 230 241 273 234 267 334 12 360 350 344 350 1 353 350 344 18 20 16 17 16 17 15 11 19
302 284 255 255 272 237 213 200 206 193 238 233 225 240 221 246 240 252 232 189 184 204 198 192 124 142 141 239 226 249 239 239 232 295 337 356 344 349 348 4 10 18 12 22 33 30 33 27 29 30 29 32 30 27
305 296 286 282 239 205 190 193 193 201 246 237 231 245 270 268 256 247 229 243 196 210 203 126 105 239 206 220 215 216 229 225 226 237 289 322 343 350 350 1 9 22 17 23 27 47 41 43 43 53 44 38 38 41
276 261 315 282 281 274 223 197 188 214 245 237 242 241 264 270 282 267 277 272 174 179 136 120 215 226 210 233 212 195 209 202 228 275 302 324 343 2 8 20 30 31 32 23 32 47 36 30 35 37 38 34 38 46
262 265 274 303 242 199 172 188 200 220 243 245 259 267 265 264 267 261 248 229 191 169 133 212 260 237 238 235 221 169 201 211 243 294 301 326 5 25 29 28 24 52 37 26 37 36 34 39 34 37 48 38 52 84
269 290 319 285 208 196 204 216 219 250 246 248 250 253 254 249 243 249 249 234 222 189 167 200 237 238 247 40 283 252 193 169 30 351 2 13 33 34 31 62 63 62 34 29 47 44 47 49 50 43 55 57 79 102
268 290 278 249 221 255 244 222 206 243 264 273 278 260 253 252 242 228 221 223 213 198 216 216 216 249 261 222 294 322 72 44 2 12 43 36 48 7 82 51 63 41 44 58 70 57 54 52 49 58 58 58 79 116
296 248 243 219 214 236 272 261 235 252 280 282 270 287 269 242 218 223 220 219 214 219 228 243 279 264 253 265 282 209 192 144 41 18 322 31 53 67 72 58 50 46 95 88 81 58 56 56 63 66 68 67 72 76
283 172 220 239 239 253 257 251 250 291 280 263 272 252 256 236 215 220 212 193 219 246 233 262 262 222 235 214 206 204 144 161 13 295 296 252 122 86 61 60 76 88 89 76 69 63 61 65 65 81 85 84 73 80
29 200 240 228 238 254 265 251 251 244 253 271 228 208 233 233 214 206 126 244 230 217 232 231 213 227 209 225 204 184 210 225 232 309 23 109 101 89 77 81 94 102 98 86 79 73 69 57 69 87 99 101 98 89
261 260 253 228 213 265 275 237 235 254 257 246 246 233 180 194 220 159 197 123 180 160 151 166 177 205 188 196 174 176 183 238 24 67 67 107 93 80 86 84 111 98 117 93 77 74 66 82 80 81 89 104 98 93
262 252 229 265 255 253 267 257 255 252 275 288 288 332 322 194 204 213 141 154 154 138 169 173 179 149 108 143 151 147 192 180 78 69 42 118 109 102 95 97 102 93 101 86 80 73 74 73 79 87 83 90 85 93
258 221 202 261 278 275 292 290 312 309 280 273 24 32 9 262 218 119 79 132 142 169 192 189 164 141 171 159 158 118 69 73 79 74 58 72 107 105 113 122 125 108 94 87 93 88 87 82 82 92 88 88 86 88
271 278 251 255 256 282 302 297 293 286 321 11 23 333 278 356 54 55 117 79 211 239 227 177 170 118 123 135 109 105 103 84 83 78 74 77 68 81 104 135 129 112 96 89 106 68 94 78 82 86 104 84 77 75
257 269 288 313 296 292 289 324 351 1 353 1 323 284 2 67 344 58 75 119 144 132 147 145 171 135 131 127 112 112 110 111 94 84 80 75 75 90 100 105 128 132 102 99 90 83 92 87 87 89 88 88 88 63
265 284 290 295 305 274 232 170 119 302 266 248 267 305 64 113 101 116 98 135 136 57 128 122 127 133 139 149 144 109 118 100 102 91 90 89 89 101 97 111 124 111 99 117 104 105 94 93 89 92 97 102 89 73
271 288 290 289 260 326 341 309 179 298 275 250 293 127 103 97 95 111 88 155 149 120 107 119 106 110 129 162 159 133 122 111 104 89 89 89 91 90 95 101 110 113 116 109 108 106 93 91 97 85 96 102 87 76
287 293 280 276 285 320 347 357 9 291 189 159 148 169 129 117 103 103 78 121 127 141 122 124 126 89 85 106 138 145 116 125 115 106 98 96 94 93 93 96 108 114 115 130 98 107 78 104 98 96 91 89 78 78
236 241 279 297 311 303 312 327 308 360 358 112 191 149 149 135 106 101 141 132 142 122 119 116 132 135 99 103 105 104 120 132 139 149 125 116 114 107 87 94 107 119 124 112 134 114 103 98 102 96 96 90 97 87
211 207 249 271 270 279 305 323 327 356 355 71 72 110 124 96 89 119 131 138 133 133 143 115 124 116 113 103 111 141 184 110 174 192 201 205 194 166 154 134 134 130 139 135 137 153 157 129 114 108 102 105 103 85
Wind_Speed_850mb
77 72 68 64 60 56 48 46 40 39 37 33 21 15 13 11 8 9 14 13 9 13 33 24 16 22 17 13 7 12 11 8 10 5 6 7 7 10 12 18 18 15 12 16 13 10 14 28 35 20 32 52 50 55
67 64 61 57 54 48 42 35 33 39 31 23 16 14 13 12 13 12 16 10 12 19 30 40 35 32 35 24 15 8 6 9 7 4 6 7 12 15 22 19 14 9 4 8 10 14 47 48 33 40 46 51 61 62
54 51 48 45 38 32 29 29 35 29 22 18 14 12 12 14 18 21 20 22 22 16 30 25 28 13 16 31 23 12 7 7 2 10 8 5 7 11 10 15 20 15 21 8 19 8 37 45 49 40 46 56 60 60
36 33 29 27 27 25 26 31 28 22 18 16 11 11 14 16 16 20 19 23 23 13 9 12 4 11 10 17 27 27 16 4 9 12 3 4 6 14 11 19 24 29 25 16 26 34 56 22 51 53 64 66 69 66
29 28 26 25 25 24 28 24 20 16 15 13 9 12 14 13 13 16 19 22 18 12 10 37 34 29 31 22 25 25 20 22 15 4 2 4 14 12 16 19 17 10 4 2 11 42 34 50 65 67 64 60 65 66
27 25 23 23 22 19 14 17 12 12 13 14 17 17 15 13 12 8 8 15 8 8 10 8 12 20 12 20 25 30 22 16 12 3 5 10 18 7 6 11 7 6 12 12 14 41 51 57 52 50 60 63 65 58
24 23 20 15 12 12 6 7 9 10 13 19 23 20 25 26 17 15 6 5 20 7 7 11 9 19 24 20 18 22 20 8 10 6 10 16 25 11 5 14 41 27 31 30 32 38 36 28 53 58 56 59 58 47
11 11 10 6 3 2 5 8 11 20 22 22 21 16 12 10 14 18 18 23 13 14 8 6 8 25 32 22 17 23 18 13 11 9 8 10 8 9 9 25 23 25 27 27 26 29 36 45 48 46 59 54 54 44
2 1 1 3 5 9 17 18 18 16 13 8 2 4 3 6 9 12 16 14 15 14 6 9 8 3 22 18 12 18 15 8 10 10 9 11 7 11 19 29 25 22 21 32 37 36 36 42 53 42 61 56 50 45
5 9 13 16 18 16 13 11 8 6 8 11 10 5 5 9 11 7 4 7 9 12 12 14 31 8 11 5 5 11 9 6 6 13 13 8 12 36 24 22 23 27 23 27 36 41 43 50 50 46 59 55 48 37
14 14 14 12 11 10 9 6 4 12 14 4 6 5 4 9 8 8 8 11 14 9 15 23 32 14 7 5 1 6 4 6 5 6 8 8 7 11 8 17 24 19 22 27 31 33 33 36 33 58 54 45 43 27
13 12 12 10 9 8 5 4 16 20 13 8 9 8 8 9 7 8 8 9 10 8 13 26 15 8 6 3 3 5 4 4 9 9 6 5 3 1 11 24 26 24 25 28 27 29 30 31 41 41 40 37 37 35
10 9 11 10 9 12 8 11 21 17 10 7 7 8 8 9 8 11 14 9 7 6 7 15 17 11 5 5 2 5 6 9 7 4 5 3 6 14 18 24 27 25 22 22 22 25 26 30 38 35 31 25 39 31
12 12 11 9 10 14 16 13 13 15 5 7 8 5 9 11 11 15 18 4 18 12 15 13 11 7 6 5 6 6 10 4 5 6 1 4 19 23 22 26 22 19 17 17 18 21 26 31 35 34 31 24 30 30
10 11 9 8 8 10 16 18 11 14 8 9 10 9 17 27 16 18 6 10 10 8 12 13 9 7 4 5 7 8 5 7 6 4 4 15 18 18 19 21 20 22 22 21 17 21 24 33 31 34 32 29 26 24
11 8 7 4 5 8 13 16 11 15 8 10 15 16 28 21 16 19 17 13 12 12 7 5 5 2 8 7 9 10 5 7 1 3 12 13 18 18 16 16 13 15 20 22 19 20 18 26 34 39 44 41 29 28
7 7 3 3 7 12 20 23 18 10 11 11 14 30 38 29 19 16 9 16 16 13 3 5 5 12 7 6 8 7 7 5 9 10 10 13 13 15 14 12 11 12 14 19 18 14 15 16 16 23 38 30 34 26
8 13 6 8 9 8 23 23 13 13 15 24 22 28 27 23 25 23 14 10 10 15 12 4 7 5 5 6 3 6 7 8 10 7 11 6 7 10 13 11 13 13 15 18 15 13 13 14 19 21 20 24 30 43
16 8 8 10 18 16 11 15 15 10 21 32 33 31 32 26 23 23 15 18 21 15 12 9 6 6 6 2 8 4 9 4 3 5 11 5 4 7 13 12 15 16 16 16 12 11 16 18 18 18 17 19 26 32
11 14 15 15 20 10 9 11 14 13 17 12 22 33 31 29 20 19 24 29 27 21 11 8 8 11 13 9 6 3 3 3 6 11 10 15 12 12 9 13 14 13 12 11 13 12 13 17 17 21 22 24 20 16
7 9 10 10 11 16 11 8 11 15 17 28 28 17 24 17 24 21 30 30 14 10 8 11 12 22 14 9 7 6 4 2 6 7 5 4 12 15 18 14 16 19 18 14 13 14 16 19 22 18 22 24 25 28
11 9 7 6 7 9 13 14 10 14 13 23 22 21 15 23 23 31 26 18 9 17 13 18 21 16 12 9 8 8 5 5 1 5 17 11 7 15 17 17 22 19 16 15 15 16 17 16 17 16 18 22 28 25
1 5 7 8 7 8 16 11 7 10 8 8 17 9 14 18 17 20 5 6 11 12 14 14 7 5 5 4 5 6 5 7 5 7 15 33 22 19 18 18 19 18 14 14 13 14 13 16 15 16 17 21 22 24
4 5 7 8 13 10 11 10 13 14 11 13 7 5 6 10 9 10 7 6 6 13 7 4 6 4 7 8 7 10 9 5 0 10 12 24 21 19 19 21 24 18 18 13 14 15 14 14 18 17 17 18 18 21
5 7 7 9 9 7 10 9 20 16 11 6 7 3 2 5 6 6 6 10 15 10 6 3 6 7 6 8 18 12 5 2 13 11 12 20 21 22 21 21 21 18 14 11 13 13 19 20 18 22 21 17 20 20
7 8 8 7 6 5 6 8 7 8 10 4 3 6 7 3 6 5 5 8 10 7 8 8 12 14 12 15 11 13 15 18 17 15 12 16 16 21 18 17 20 15 10 10 12 15 18 20 21 21 20 21 22 18
7 7 9 14 12 13 11 15 23 14 10 11 7 8 5 4 7 5 9 4 5 10 12 19 22 5 15 22 16 15 16 19 20 19 18 17 23 19 16 19 19 18 15 12 14 17 19 18 18 18 17 17 16 16
13 9 8 13 17 16 21 14 12 11 9 11 13 5 7 3 2 4 4 2 8 16 21 35 10 5 15 17 18 16 16 19 18 19 23 24 24 22 22 20 20 19 16 17 17 19 19 18 19 17 15 15 15 15
15 16 14 19 14 9 6 5 4 3 14 5 4 5 5 4 6 12 10 20 24 13 22 19 12 15 16 14 17 16 18 15 17 17 17 22 20 21 21 19 18 21 15 12 15 19 18 17 14 15 15 16 13 13
11 10 9 13 8 7 10 6 7 15 9 4 6 8 15 14 14 15 14 30 18 6 12 13 12 12 10 18 22 24 18 17 16 18 20 21 19 19 18 17 17 15 16 18 18 19 13 17 20 13 14 12 9 9
9 7 9 12 11 13 13 16 14 5 11 13 8 7 15 18 17 16 11 11 3 4 10 13 15 17 14 14 16 19 20 17 15 19 20 17 17 17 16 16 14 14 15 17 8 8 7 14 12 9 9 9 11 13
7 8 7 6 9 14 13 10 13 10 8 7 6 9 16 13 15 9 9 9 8 8 10 10 13 13 13 11 12 13 17 14 14 17 22 20 16 14 11 10 12 11 8 7 10 8 9 9 10 13 12 9 12 13
9 8 11 18 11 5 5 7 9 9 7 5 7 7 10 11 12 9 8 6 8 13 11 13 17 20 18 14 12 11 6 1 7 11 17 17 12 12 14 8 10 7 10 9 8 7 6 4 6 7 9 10 10 11
Wind_Direction_850mb
293 293 293 293 292 290 287 291 293 302 300 296 279 282 280 281 225 249 282 287 266 282 291 274 270 260 263 262 265 338 300 226 279 286 295 359 293 344 303 297 317 313 299 269 273 252 258 5 339 344 312 317 319 312
293 293 292 290 289 287 286 287 291 293 288 280 269 267 251 244 220 251 293 306 279 260 273 287 275 268 248 243 245 256 243 295 321 341 341 335 315 309 310 295 304 293 20 289 299 294 318 319 331 324 317 308 311 310
293 293 291 289 287 285 283 288 288 285 276 255 255 242 244 250 241 256 274 293 306 287 305 298 228 255 229 219 219 222 273 275 318 342 348 319 286 323 297 302 325 322 319 264 298 293 310 335 320 322 315 310 307 305
297 295 294 291 287 280 282 280 272 263 247 238 236 252 259 264 265 271 263 277 285 279 289 326 229 220 222 195 209 219 233 269 312 302 290 254 275 308 296 309 299 290 300 296 293 303 328 314 319 313 308 306 304 302
298 299 298 290 284 282 281 273 264 252 228 224 238 266 283 257 257 274 269 268 282 262 293 295 287 274 235 234 200 198 221 240 263 285 311 269 300 307 296 285 278 25 63 308 289 307 293 295 306 313 309 305 303 302
300 299 298 292 283 276 267 269 237 222 221 243 257 275 273 263 270 311 281 222 233 270 300 306 312 217 183 177 192 200 202 214 228 270 263 262 253 271 286 288 116 44 326 300 269 298 301 304 307 311 310 312 312 309
289 286 287 279 272 271 227 222 236 248 263 267 279 271 273 267 236 250 266 178 162 305 273 292 283 185 176 175 158 161 179 185 202 219 233 250 267 212 252 261 281 321 319 317 310 311 308 313 313 321 321 317 323 317
295 291 288 275 181 223 265 262 264 275 277 277 280 278 292 259 229 259 252 240 266 281 254 266 265 180 181 180 171 180 163 183 212 230 243 236 161 204 253 251 279 316 315 311 313 308 293 307 310 319 334 325 327 323
10 348 269 260 255 267 277 273 275 276 276 280 260 264 120 161 222 227 248 236 238 233 251 241 286 347 178 184 178 171 170 188 196 222 233 160 191 226 235 251 289 295 292 306 321 315 325 326 325 311 332 328 325 319
283 276 268 268 274 282 278 268 271 284 151 140 120 215 228 214 214 233 179 186 202 210 236 253 258 265 280 144 138 160 204 204 218 220 191 218 247 249 258 264 281 274 284 306 312 325 323 334 340 333 331 332 329 320
287 284 281 276 272 266 270 264 203 145 150 176 225 254 199 203 195 215 221 205 188 223 225 237 232 232 17 17 87 236 224 213 262 162 230 204 247 244 265 295 309 287 279 290 311 331 332 340 341 337 343 349 350 359
288 278 276 277 261 238 229 204 166 153 186 213 278 287 198 208 202 229 217 207 191 244 204 201 173 179 103 59 251 300 267 267 256 156 237 255 135 276 352 330 328 314 310 313 318 338 342 357 348 351 357 1 14 11
273 270 273 265 254 226 225 195 190 181 195 252 238 239 210 221 226 226 207 200 212 212 189 163 175 136 99 101 163 244 247 234 257 228 254 1 344 354 349 331 324 326 331 332 341 344 7 2 357 4 5 9 27 25
273 274 276 251 264 241 215 196 196 210 226 243 220 248 230 202 234 220 249 220 229 185 208 172 143 137 137 167 222 242 230 241 273 234 267 334 12 360 350 344 350 1 353 350 344 18 20 16 17 16 17 15 11 19
302 284 255 255 272 237 213 200 206 193 238 233 225 240 221 246 240 252 232 189 184 204 198 192 124 142 141 239 226 249 239 239 232 295 337 356 344 349 348 4 10 18 12 22 33 30 33 27 29 30 29 32 30 27
305 296 286 282 239 205 190 193 193 201 246 237 231 245 270 268 256 247 229 243 196 210 203 126 105 239 206 220 215 216 229 225 226 237 289 322 343 350 350 1 9 22 17 23 27 47 41 43 43 53 44 38 38 41
276 261 315 282 281 274 223 197 188 214 245 237 242 241 264 270 282 267 277 272 174 179 136 120 215 226 210 233 212 195 209 202 228 275 302 324 343 2 8 20 30 31 32 23 32 47 36 30 35 37 38 34 38 46
262 265 274 303 242 199 172 188 200 220 243 245 259 267 265 264 267 261 248 229 191 169 133 212 260 237 238 235 221 169 201 211 243 294 301 326 5 25 29 28 24 52 37 26 37 36 34 39 34 37 48 38 52 84
269 290 319 285 208 196 204 216 219 250 246 248 250 253 254 249 243 249 249 234 222 189 167 200 237 238 247 40 283 252 193 169 30 351 2 13 33 34 31 62 63 62 34 29 47 44 47 49 50 43 55 57 79 102
268 290 278 249 221 255 244 222 206 243 264 273 278 260 253 252 242 228 221 223 213 198 216 216 216 249 261 222 294 322 72 44 2 12 43 36 48 7 82 51 63 41 44 58 70 57 54 52 49 58 58 58 79 116
296 248 243 219 214 236 272 261 235 252 280 282 270 287 269 242 218 223 220 219 214 219 228 243 279 264 253 265 282 209 192 144 41 18 322 31 53 67 72 58 50 46 95 88 81 58 56 56 63 66 68 67 72 76
283 172 220 239 239 253 257 251 250 291 280 263 272 252 256 236 215 220 212 193 219 246 233 262 262 222 235 214 206 204 144 161 13 295 296 252 122 86 61 60 76 88 89 76 69 63 61 65 65 81 85 84 73 80
29 200 240 228 238 254 265 251 251 244 253 271 228 208 233 233 214 206 126 244 230 217 232 231 213 227 209 225 204 184 210 225 232 309 23 109 101 89 77 81 94 102 98 86 79 73 69 57 69 87 99 101 98 89
261 260 253 228 213 265 275 237 235 254 257 246 246 233 180 194 220 159 197 123 180 160 151 166 177 205 188 196 174 176 183 238 24 67 67 107 93 80 86 84 111 98 117 93 77 74 66 82 80 81 89 104 98 93
262 252 229 265 255 253 267 257 255 252 275 288 288 332 322 194 204 213 141 154 154 138 169 173 179 149 108 143 151 147 192 180 78 69 42 118 109 102 95 97 102 93 101 86 80 73 74 73 79 87 83 90 85 93
258 221 202 261 278 275 292 290 312 309 280 273 24 32 9 262 218 119 79 132 142 169 192 189 164 141 171 159 158 118 69 73 79 74 58 72 107 105 113 122 125 108 94 87 93 88 87 82 82 92 88 88 86 88
271 278 251 255 256 282 302 297 293 286 321 11 23 333 278 356 54 55 117 79 211 239 227 177 170 118 123 135 109 105 103 84 83 78 74 77 68 81 104 135 129 112 96 89 106 68 94 78 82 86 104 84 77 75
257 269 288 313 296 292 289 324 351 1 353 1 323 284 2 67 344 58 75 119 144 132 147 145 171 135 131 127 112 112 110 111 94 84 80 75 75 90 100 105 128 132 102 99 90 83 92 87 87 89 88 88 88 63
265 284 290 295 305 274 232 170 119 302 266 248 267 305 64 113 101 116 98 135 136 57 128 122 127 133 139 149 144 109 118 100 102 91 90 89 89 101 97 111 124 111 99 117 104 105 94 93 89 92 97 102 89 73
271 288 290 289 260 326 341 309 179 298 275 250 293 127 103 97 95 111 88 155 149 120 107 119 106 110 129 162 159 133 122 111 104 89 89 89 91 90 95 101 110 113 116 109 108 106 93 91 97 85 96 102 87 76
287 293 280 276 285 320 347 357 9 291 189 159 148 169 129 117 103 103 78 121 127 141 122 124 126 89 85 106 138 145 116 125 115 106 98 96 94 93 93 96 108 114 115 130 98 107 78 104 98 96 91 89 78 78
236 241 279 297 311 303 312 327 308 360 358 112 191 149 149 135 106 101 141 132 142 122 119 116 132 135 99 103 105 104 120 132 139 149 125 116 114 107 87 94 107 119 124 112 134 114 103 98 102 96 96 90 97 87
211 207 249 271 270 279 305 323 327 356 355 71 72 110 124 96 89 119 131 138 133 133 143 115 124 116 113 103 111 141 184 110 174 192 201 205 194 166 154 134 134 130 139 135 137 153 157 129 114 108 102 105 103 85